Location: Unspecified
(0.0000°N, 0.0000°E)
Time: 10:34:52
(UTC+00:00)

Vanguard 2 Rocket - Pass Details

Date: 11 December 2017
Orbit: 553 x 3328 km, 32.9° (Epoch: 22 June)

Event Time Altitude Azimuth Distance (km) Brightness Sun altitude
Rises 06:44:47 0° 277° (W) 5,829 10.4 11.8°
Reaches altitude 10° 06:50:42 10° 262° (W) 4,222 9.8 13.2°
Maximum altitude 06:57:30 19° 222° (SW) 2,831 9.3 14.8°
Drops below altitude 10° 07:02:25 10° 179° (S) 2,896 9.9 15.9°
Sets 07:05:30 0° 159° (SSE) 3,503 10.6 16.6°
